Sperrgebiet National Park
(Preview)
General news
0
522
The second largest national park will be proclaimed on Friday, in the Karas Region. Diamond Area 1 was classified as the "Sperrgebiet " meaning "forbidden area ", after diamonds were discovered and mining started in the area. Again past colonial decisions, which were discr...
Taralabalu Hunnime
(Preview)
Events
0
1390
ISRO's public relations officer B R Guruprasad demonstrated the prototype component models that were used in Chandrayaan-I to Sri Taralabalu pontiff Shivamurthy Shivacharya maha swamiji, at BIET college in Davanagere on Tuesday evening. The Sanehalli mutt pontiff Sri Panditharadhya swamij...
Asteroid 2008 LP17
(Preview)
Solar System
0
472
Orbital elements: 2008 LP17 Epoch 2008 Nov. 30.0 TT = JDT 2454800.5 MPC M 358.27679 (2000.0) P Q n 0.00117903 Peri. 161.90239 -0.57298216 +0.78597880 a 88.7402345 Node 72.51344 -0.77881516 -0.43393685 e 0.6622497 Incl. 14.09187 -0.25522224 -0.44038181 P 836 H 6.4 G 0.15 U 5 MPEC 2009 -C48
HD45364
(Preview)
Stars/galaxy News
1
588
Title: HD45364, a pair of planets in a 3:2 mean motion resonance Authors: A.C.M. Correia, S. Udry, M. Mayor, W. Benz, J.-L. Bertaux, F. Bouchy, J. Laskar, C. Lovis, C. Mordasini, F. Pepe, D. Queloz Precise radial-velocity measurements with the HARPS spectrograph reveal the presence of two planets...
Kondyor Massif
(Preview)
Off Topic
1
670
Que sont ces structures parfaitement circulaires, légèrement en creux qu'on observe depuis l'espace à l'Est de la Sibérie ? Des cratères d'impacts ? D'anciens volcans ? Des intrusions magmatiques ? Sur le terrain la première hypothèse est vite éliminée, les roches ont une signature très profond...
Asteroid 2009 CZ1
(Preview)
Solar System
1
534
Asteroid 2009 CZ1 = 9C95FCC (NEOCPO) Orbital elements: 2009 CZ1 Earth MOID = 0.0012 AU Epoch 2008 Nov. 30.0 TT = JDT 2454800.5 MPC M 324.03803 (2000.0) P Q n 0.29777280 Peri. 65.91339 -0.80531366 +0.59255190 a 2.2209871 Node 150.41456 -0.55679854 -0.74509476 e 0.6537767 Incl. 2.17829 -0.2035811...
Asteroid 2009 CC2
(Preview)
Solar System
0
482
Asteroid 2009 CC2 = 9C095FC (NEOCPO) Orbital elements: 2009 CC2 Earth MOID = 0.0013 AU Epoch 2008 Nov. 30.0 TT = JDT 2454800.5 MPC M 353.09693 (2000.0) P Q n 0.37294053 Peri. 275.18814 +0.67162121 -0.73988195 a 1.9115089 Node 132.54106 +0.69888025 +0.61531793 e 0.6788750 Incl. 3.01281 +0.245949...
Asteroid 2009 CB2
(Preview)
Solar System
0
527
Asteroid 2009 CB2 = ts542 (NEOCPO) Orbital elements: 2009 CB2 Earth MOID = 0.5577 AU Epoch 2008 Nov. 30.0 TT = JDT 2454800.5 MPC M 290.87529 (2000.0) P Q n 0.34243251 Peri. 87.74223 -0.54176896 +0.73453351 a 2.0234201 Node 139.05216 -0.76550863 -0.63193990 e 0.3935391 Incl. 38.56850 +0.34710651...
Asteroid 2009 CY1
(Preview)
Solar System
0
452
Asteroid 2009 CY1 = 9C9628A (NEOCPO) Orbital elements: 2009 CY1 Earth MOID = 0.2448 AU Epoch 2008 Nov. 30.0 TT = JDT 2454800.5 MPC M 329.10102 (2000.0) P Q n 0.58060966 Peri. 346.67630 -0.60796265 -0.76427112 a 1.4230272 Node 140.15017 +0.75575588 -0.64009643 e 0.1369038 Incl. 19.61492 +0.24334...
Asteroid 2009 CX1
(Preview)
Solar System
0
483
Asteroid 2009 CX1 = 9C95A43 (NEOCPO) Orbital elements: 2009 CX1 Earth MOID = 0.2009 AU Epoch 2008 Nov. 30.0 TT = JDT 2454800.5 MPC M 351.76286 (2000.0) P Q n 0.20927562 Peri. 277.23347 -0.37106769 -0.92857976 a 2.8096806 Node 194.55391 +0.86253204 -0.34187948 e 0.5791928 Incl. 1.58655 +0.344016...
Asteroid 2009 CW1
(Preview)
Solar System
0
499
Asteroid 2009 CW1 = BO41305 (NEOCPO) Orbital elements: 2009 CW1 Earth MOID = 0.1513 AU Epoch 2008 Nov. 30.0 TT = JDT 2454800.5 MPC M 329.28452 (2000.0) P Q n 0.45026104 Peri. 159.13484 -0.75599318 -0.64997504 a 1.6858793 Node 339.70473 +0.56445302 -0.58736226 e 0.3297672 Incl. 12.91139 +0.33146...
Asteroid 2009 CV1
(Preview)
Solar System
0
502
Asteroid 2009 CV1 = 9C95783 (NEOCPO) Orbital elements: 2009 CV1 Earth MOID = 0.0332 AU Epoch 2008 Nov. 30.0 TT = JDT 2454800.5 MPC M 352.92398 (2000.0) P Q n 0.40260638 Peri. 293.87041 +0.31093078 -0.94547501 a 1.8164172 Node 137.62741 +0.91593850 +0.27085174 e 0.5283547 Incl. 8.27079 +0.253729...
Asteroid 2009 CU1
(Preview)
Solar System
0
420
Asteroid 2009 CU1 = 9C9570A (NEOCPO) Orbital elements: 2009 CU1 Earth MOID = 0.2250 AU Epoch 2008 Nov. 30.0 TT = JDT 2454800.5 MPC M 337.22399 (2000.0) P Q n 0.30147015 Peri. 341.97075 -0.81503146 -0.57901262 a 2.2027904 Node 162.59575 +0.54011261 -0.77273321 e 0.4497831 Incl. 4.14800 +0.209766...
Asteroid 2009 CT1
(Preview)
Solar System
0
478
Asteroid 2009 CT1 = SW40fn (NEOCPO) Orbital elements: 2009 CT1 Earth MOID = 0.0728 AU Epoch 2008 Nov. 30.0 TT = JDT 2454800.5 MPC M 326.20702 (2000.0) P Q n 0.32106030 Peri. 46.00832 -0.99814151 -0.04130923 a 2.1122483 Node 131.57068 +0.02240502 -0.93244853 e 0.5008295 Incl. 3.43307 +0.05667045...
Asteroid 2009 CS1
(Preview)
Solar System
0
465
Asteroid 2009 CS1 = BO41248 (NEOCPO) Orbital elements: 2009 CS1 Earth MOID = 0.0746 AU Epoch 2009 Jan. 29.0 TT = JDT 2454860.5 MPC M 312.62649 (2000.0) P Q n 0.52114251 Peri. 250.33947 -0.73420783 +0.66387175 a 1.5293201 Node 330.71431 -0.46116949 -0.64134766 e 0.4182259 Incl. 16.89654 -0.49825...
«First < 1
2161 2162 2163 2164 2165
2461 > Last» | Page
